User: anonymous   Login
Location: Unspecified
(0.0000°N, 0.0000°E)
Time: 02:56:44
(UTC+00:00)
Language:

GALILEO 10 (206) - Orbit

View from above orbital plane
View from above orbital plane
View from above satellite
View from above satellite

Ground track
Ground track

The orbit data is extracted from the following two-line orbital elements,

1 40890U 15045B   17229.24201220 -.00000047  00000-0  00000+0 0  9991
2 40890  56.9681 310.4666 0001213 224.1987 135.8473  1.70475068 12040
Epoch (UTC): 17 August 2017 05:48:29
Eccentricity: 0.0001213
inclination: 56.9681°
perigee height: 23218 km
apogee height: 23225 km
right ascension of ascending node: 310.4666°
argument of perigee: 224.1987°
revolutions per day: 1.70475068
mean anomaly at epoch: 135.8473°
orbit number at epoch: 1204

The dashed part of the orbit path shows where the satellite is in the earth's shadow,  

DLR